• Em Portugal
  • Lista de países
  • Para 7 dias
  • Temperatura da água
  • Mapas de satélite
  • Mapa do tempo
  • Widgets de tempo
  • user-avatar
    Iniciar Sessão

    Previsão horária em Macapa

    Hoje, 11 Dezembro, Segunda-feira

    Tempo Temperatura Precipitação Vento Pressão Humidade
    00:00 +27°C° 0 mm 2 m/s 757 mmHg 90%
    01:00 +26°C° 0 mm 2 m/s 757 mmHg 91%
    02:00 +26°C° 0 mm 2 m/s 757 mmHg 93%
    03:00 +26°C° 0 mm 2 m/s 756 mmHg 94%
    04:00 +26°C° 0 mm 2 m/s 756 mmHg 95%
    05:00 +25°C° 0 mm 2 m/s 756 mmHg 95%
    06:00 +25°C° 0 mm 2 m/s 756 mmHg 96%
    07:00 +27°C° 0 mm 2 m/s 757 mmHg 88%
    08:00 +29°C° 0 mm 2 m/s 757 mmHg 80%
    09:00 +30°C° 0 mm 2 m/s 757 mmHg 72%
    10:00 +32°C° 0,1 mm 2 m/s 757 mmHg 65%
    11:00 +35°C° 0,1 mm 2 m/s 757 mmHg 57%
    12:00 +36°C° 0,1 mm 2 m/s 757 mmHg 50%
    13:00 +36°C° 0,3 mm 3 m/s 756 mmHg 50%
    14:00 +36°C° 0,3 mm 3 m/s 756 mmHg 51%
    15:00 +36°C° 0,3 mm 3 m/s 755 mmHg 51%
    16:00 +34°C° 0,3 mm 3 m/s 755 mmHg 58%
    17:00 +33°C° 0,3 mm 3 m/s 755 mmHg 65%
    18:00 +30°C° 0,3 mm 3 m/s 755 mmHg 72%
    19:00 +29°C° 0 mm 3 m/s 756 mmHg 75%
    20:00 +29°C° 0 mm 3 m/s 756 mmHg 78%
    21:00 +28°C° 0 mm 3 m/s 757 mmHg 81%
    22:00 +28°C° 0 mm 3 m/s 757 mmHg 84%
    23:00 +27°C° 0 mm 3 m/s 757 mmHg 86%

    Amanhã, 12 Dezembro, Terça-feira

    Tempo Temperatura Precipitação Vento Pressão Humidade
    00:00 +27°C° 0 mm 2 m/s 757 mmHg 88%
    01:00 +27°C° 0,1 mm 2 m/s 757 mmHg 91%
    02:00 +26°C° 0,1 mm 2 m/s 756 mmHg 93%
    03:00 +26°C° 0,1 mm 2 m/s 756 mmHg 95%
    04:00 +26°C° 0,1 mm 2 m/s 756 mmHg 96%
    05:00 +26°C° 0,1 mm 2 m/s 756 mmHg 96%
    06:00 +25°C° 0,1 mm 2 m/s 756 mmHg 97%
    07:00 +27°C° 0,1 mm 2 m/s 757 mmHg 88%
    08:00 +29°C° 0,1 mm 2 m/s 758 mmHg 79%
    09:00 +31°C° 0,1 mm 3 m/s 758 mmHg 70%
    10:00 +33°C° 0,1 mm 3 m/s 758 mmHg 63%
    11:00 +35°C° 0,1 mm 3 m/s 758 mmHg 55%
    12:00 +37°C° 0,1 mm 3 m/s 758 mmHg 48%
    13:00 +36°C° 0,3 mm 3 m/s 757 mmHg 50%
    14:00 +36°C° 0,3 mm 4 m/s 756 mmHg 52%
    15:00 +35°C° 0,3 mm 4 m/s 755 mmHg 54%
    16:00 +34°C° 0,1 mm 3 m/s 755 mmHg 60%
    17:00 +33°C° 0,1 mm 3 m/s 755 mmHg 67%
    18:00 +30°C° 0,1 mm 3 m/s 755 mmHg 73%
    19:00 +29°C° 0,4 mm 3 m/s 756 mmHg 79%
    20:00 +28°C° 0,4 mm 3 m/s 757 mmHg 84%
    21:00 +27°C° 0,4 mm 3 m/s 757 mmHg 90%
    22:00 +27°C° 0,1 mm 3 m/s 757 mmHg 91%
    23:00 +27°C° 0,1 mm 3 m/s 758 mmHg 92%

    Depois de amanhã, 13 Dezembro, Quarta-feira

    Tempo Temperatura Precipitação Vento Pressão Humidade
    00:00 +26°C° 0,1 mm 2 m/s 758 mmHg 93%
    01:00 +26°C° 0 mm 2 m/s 757 mmHg 94%
    02:00 +26°C° 0 mm 2 m/s 757 mmHg 94%
    03:00 +26°C° 0 mm 2 m/s 756 mmHg 94%
    04:00 +26°C° 0 mm 2 m/s 756 mmHg 95%
    05:00 +26°C° 0 mm 2 m/s 757 mmHg 96%
    06:00 +26°C° 0 mm 2 m/s 757 mmHg 96%
    07:00 +27°C° 0 mm 2 m/s 757 mmHg 90%
    08:00 +28°C° 0 mm 2 m/s 758 mmHg 83%
    09:00 +30°C° 0 mm 2 m/s 759 mmHg 77%
    10:00 +31°C° 0,5 mm 2 m/s 758 mmHg 74%
    11:00 +32°C° 0,5 mm 2 m/s 758 mmHg 70%
    12:00 +32°C° 0,5 mm 2 m/s 758 mmHg 67%
    13:00 +33°C° 1 mm 3 m/s 757 mmHg 67%
    14:00 +34°C° 1 mm 3 m/s 756 mmHg 67%
    15:00 +34°C° 1 mm 3 m/s 755 mmHg 67%
    16:00 +31°C° 0,8 mm 3 m/s 756 mmHg 73%
    17:00 +30°C° 0,8 mm 3 m/s 756 mmHg 79%
    18:00 +29°C° 0,8 mm 3 m/s 756 mmHg 85%
    19:00 +28°C° 0,8 mm 2 m/s 757 mmHg 88%
    20:00 +27°C° 0,8 mm 2 m/s 758 mmHg 90%
    21:00 +27°C° 0,8 mm 2 m/s 758 mmHg 93%
    22:00 +26°C° 0,2 mm 2 m/s 758 mmHg 94%
    23:00 +26°C° 0,2 mm 2 m/s 758 mmHg 95%

    14 Dezembro, Quinta-feira

    Tempo Temperatura Precipitação Vento Pressão Humidade
    00:00 +26°C° 0,2 mm 2 m/s 758 mmHg 96%
    01:00 +26°C° 0,3 mm 2 m/s 758 mmHg 96%
    02:00 +26°C° 0,3 mm 2 m/s 757 mmHg 96%
    03:00 +26°C° 0,3 mm 1 m/s 757 mmHg 97%
    04:00 +25°C° 0,7 mm 1 m/s 757 mmHg 97%
    05:00 +25°C° 0,7 mm 1 m/s 757 mmHg 97%
    06:00 +25°C° 0,7 mm 1 m/s 758 mmHg 98%
    07:00 +26°C° 0,1 mm 1 m/s 758 mmHg 93%
    08:00 +28°C° 0,1 mm 1 m/s 759 mmHg 88%
    09:00 +29°C° 0,1 mm 1 m/s 759 mmHg 83%
    10:00 +31°C° 0,1 mm 1 m/s 759 mmHg 74%
    11:00 +33°C° 0,1 mm 1 m/s 759 mmHg 65%
    12:00 +34°C° 0,1 mm 1 m/s 758 mmHg 56%
    13:00 +34°C° 0,1 mm 1 m/s 757 mmHg 55%
    14:00 +35°C° 0,1 mm 2 m/s 756 mmHg 55%
    15:00 +35°C° 0,1 mm 2 m/s 756 mmHg 54%
    16:00 +32°C° 0,3 mm 2 m/s 756 mmHg 63%
    17:00 +31°C° 0,3 mm 2 m/s 756 mmHg 71%
    18:00 +29°C° 0,3 mm 2 m/s 756 mmHg 79%
    19:00 +29°C° 0,8 mm 2 m/s 757 mmHg 83%
    20:00 +28°C° 0,8 mm 2 m/s 757 mmHg 87%
    21:00 +27°C° 0,8 mm 2 m/s 758 mmHg 90%
    22:00 +27°C° 0,5 mm 2 m/s 758 mmHg 92%
    23:00 +26°C° 0,5 mm 2 m/s 758 mmHg 93%

    15 Dezembro, Sexta-feira

    Tempo Temperatura Precipitação Vento Pressão Humidade
    00:00 +26°C° 0,5 mm 2 m/s 758 mmHg 94%
    01:00 +26°C° 0,2 mm 1 m/s 758 mmHg 95%
    02:00 +26°C° 0,2 mm 1 m/s 757 mmHg 96%
    03:00 +26°C° 0,2 mm 1 m/s 757 mmHg 96%
    04:00 +26°C° 0,6 mm 1 m/s 757 mmHg 97%
    05:00 +25°C° 0,6 mm 1 m/s 757 mmHg 97%
    06:00 +25°C° 0,6 mm 1 m/s 758 mmHg 97%
    07:00 +27°C° 0,8 mm 1 m/s 758 mmHg 92%
    08:00 +28°C° 0,8 mm 1 m/s 759 mmHg 87%
    09:00 +29°C° 0,8 mm 1 m/s 759 mmHg 82%
    10:00 +30°C° 0,9 mm 1 m/s 759 mmHg 77%
    11:00 +31°C° 0,9 mm 1 m/s 758 mmHg 72%
    12:00 +32°C° 0,9 mm 1 m/s 758 mmHg 67%
    13:00 +32°C° 1,5 mm 2 m/s 757 mmHg 70%
    14:00 +31°C° 1,5 mm 2 m/s 757 mmHg 74%
    15:00 +31°C° 1,5 mm 2 m/s 756 mmHg 77%
    16:00 +30°C° 1,2 mm 2 m/s 756 mmHg 81%
    17:00 +29°C° 1,2 mm 2 m/s 756 mmHg 85%
    18:00 +28°C° 1,2 mm 2 m/s 756 mmHg 89%
    19:00 +27°C° 0,3 mm 2 m/s 757 mmHg 90%
    20:00 +27°C° 0,3 mm 2 m/s 757 mmHg 92%
    21:00 +26°C° 0,3 mm 2 m/s 758 mmHg 93%
    22:00 +26°C° 0,1 mm 2 m/s 758 mmHg 94%
    23:00 +26°C° 0,1 mm 1 m/s 758 mmHg 94%

    16 Dezembro, Sábado

    Tempo Temperatura Precipitação Vento Pressão Humidade
    00:00 +26°C° 0,1 mm 1 m/s 758 mmHg 95%
    01:00 +25°C° 0 mm 1 m/s 757 mmHg 95%
    02:00 +25°C° 0 mm 1 m/s 757 mmHg 96%
    03:00 +25°C° 0 mm 1 m/s 756 mmHg 96%
    04:00 +25°C° 0,5 mm 1 m/s 757 mmHg 96%
    05:00 +23°C° 0,5 mm 0 m/s 757 mmHg 97%
    06:00 +23°C° 0,5 mm 0 m/s 757 mmHg 97%
    07:00 +26°C° 0,7 mm 1 m/s 757 mmHg 91%
    08:00 +28°C° 0,7 mm 1 m/s 758 mmHg 85%
    09:00 +29°C° 0,7 mm 1 m/s 759 mmHg 80%
    10:00 +30°C° 1,4 mm 1 m/s 758 mmHg 74%
    11:00 +31°C° 1,4 mm 1 m/s 758 mmHg 68%
    12:00 +33°C° 1,4 mm 1 m/s 758 mmHg 62%
    13:00 +32°C° 0,8 mm 2 m/s 757 mmHg 63%
    14:00 +32°C° 0,8 mm 2 m/s 756 mmHg 65%
    15:00 +32°C° 0,8 mm 2 m/s 755 mmHg 66%
    16:00 +31°C° 1,1 mm 2 m/s 756 mmHg 73%
    17:00 +29°C° 1,1 mm 2 m/s 756 mmHg 80%
    18:00 +28°C° 1,1 mm 2 m/s 756 mmHg 87%
    19:00 +27°C° 1,8 mm 2 m/s 757 mmHg 89%
    20:00 +27°C° 1,8 mm 3 m/s 757 mmHg 91%
    21:00 +26°C° 1,8 mm 3 m/s 758 mmHg 93%
    22:00 +26°C° 0,2 mm 3 m/s 758 mmHg 94%
    23:00 +26°C° 0,2 mm 2 m/s 758 mmHg 94%
    Mostrar mais